Location: Prairie State College
(41.5244°N, 87.6382°W)
Time: 16:38:48
(UTC-05:00)

Amateur Radio Satellites - All Passes

Search period start: 23 April 2017 16:08
Search period end: 24 April 2017 16:08
Location: Prairie State College, 41.5244°N, 87.6382°W

Satellite Date Start Highest point End Downlink Frequencies (MHz)
Time Altitude Azimuth
AO-7 23 Apr 16:08:49 16:16:51 53° 258° (WSW) 16:24:56 .
ITUPSAT 1 23 Apr 16:16:44 16:21:27 61° 287° (WNW) 16:26:09 437.325
YUBILEINY 23 Apr 16:36:34 16:45:17 74° 266° (W) 16:54:02 435.215
CUTE-I 23 Apr 16:43:15 16:45:28 13° 58° (ENE) 16:47:41 437.470
KKS-1 23 Apr 16:44:01 16:47:34 23° 95° (E) 16:51:06 437.445
CUBESAT XI-V 23 Apr 16:46:11 16:50:05 25° 94° (E) 16:53:57 437.345
ISS 23 Apr 16:48:51 16:51:58 43° 221° (SW) 16:55:04 437.550
Tancredo 1 23 Apr 16:54:26 16:57:09 28° 224° (SW) 16:59:52 437.200
RS-15 23 Apr 17:04:14 17:16:36 81° 56° (NE) 17:28:19 29.354- 29.394
DOVE 4 23 Apr 17:10:28 17:15:11 34° 69° (ENE) 17:19:53 437.250
XW-2D 23 Apr 17:10:46 17:13:00 15° 66° (ENE) 17:15:16 145.860 - 145.880
BEESAT 2 23 Apr 17:11:07 17:13:27 15° 319° (NW) 17:15:47 435.950
XW-2B 23 Apr 17:17:15 17:19:48 18° 67° (ENE) 17:22:21 145.730 - 145.750
BEESAT 23 Apr 17:17:38 17:20:37 17° 297° (WNW) 17:23:34 436.000
HO-68 23 Apr 17:19:18 17:21:45 12° 49° (NE) 17:24:12 435.675
LilacSat-2 23 Apr 17:23:32 17:26:28 22° 69° (ENE) 17:29:25 437.200
SO-50 23 Apr 17:24:42 17:28:18 24° 247° (WSW) 17:31:54 436.795
STARS 23 Apr 17:25:48 17:29:35 28° 96° (E) 17:33:19 437.465
XW-2C 23 Apr 17:28:25 17:31:26 24° 70° (ENE) 17:34:30 145.795 - 145.815
KAITUO 1B 23 Apr 17:35:05 17:38:00 22° 69° (ENE) 17:40:55 145.475/437.950
MOZHAYETS 4 23 Apr 17:42:54 17:45:50 17° 296° (WNW) 17:48:46
XW-2F 23 Apr 17:55:59 17:59:35 49° 74° (ENE) 18:03:12 145.980 - 146.000
NUDT-PHONESAT 23 Apr 18:18:20 18:21:59 80° 77° (ENE) 18:25:40 437.300
CUTE-I 23 Apr 18:19:20 18:24:42 88° 76° (ENE) 18:30:05 437.470
KKS-1 23 Apr 18:20:11 18:24:09 32° 291° (WNW) 18:28:05 437.445
CUBESAT XI-V 23 Apr 18:23:13 18:27:28 34° 291° (WNW) 18:31:41 437.345
CUTE 1.7 + AOD 2 23 Apr 18:27:18 18:30:01 17° 65° (ENE) 18:32:44 437.475
YUBILEINY 23 Apr 18:36:44 18:40:27 13° 286° (WNW) 18:44:12 435.215
XW-2D 23 Apr 18:43:26 18:46:54 36° 262° (W) 18:50:23 145.860 - 145.880
DOVE 4 23 Apr 18:48:06 18:52:47 32° 265° (W) 18:57:29 437.250
XW-2B 23 Apr 18:50:26 18:53:45 31° 263° (W) 18:57:07 145.730 - 145.750
SEEDS 23 Apr 18:53:37 18:56:46 21° 67° (ENE) 18:59:55 437.485
CUBEBUG 2 23 Apr 18:56:00 18:58:50 17° 66° (ENE) 19:01:36 437.445
LilacSat-2 23 Apr 18:57:33 19:00:39 24° 265° (W) 19:03:46 437.200
HO-68 23 Apr 19:01:02 19:08:01 60° 69° (ENE) 19:15:03 435.675
STARS 23 Apr 19:02:10 19:05:49 26° 292° (WNW) 19:09:27 437.465
XW-2C 23 Apr 19:02:37 19:05:35 22° 265° (W) 19:08:33 145.795 - 145.815
KAITUO 1B 23 Apr 19:08:57 19:11:55 23° 265° (W) 19:14:53 145.475/437.950
STRAND 1 23 Apr 19:10:58 19:14:15 17° 92° (E) 19:17:32 437.568
RS-15 23 Apr 19:18:08 19:27:41 29° 258° (WSW) 19:36:57 29.354- 29.394
XW-2A 23 Apr 19:23:42 19:27:04 78° 77° (ENE) 19:30:26 145.665 - 145.685
XW-2F 23 Apr 19:33:14 19:34:01 10° 270° (W) 19:34:47 145.980 - 146.000
M-CUBED/EXP-1 PRIME 23 Apr 19:41:24 19:44:52 24° 99° (E) 19:48:07 437.505
ZACube-1 23 Apr 19:53:07 19:56:28 23° 68° (ENE) 19:59:46 437.345
CUTE 1.7 + AOD 2 23 Apr 20:01:30 20:05:30 43° 262° (W) 20:09:33 437.475
AO-73 23 Apr 20:01:55 20:05:25 26° 69° (ENE) 20:08:52 145.935
CUTE-I 23 Apr 20:03:54 20:05:25 11° 272° (W) 20:06:57 437.470
AAUSAT CUBESAT 2 23 Apr 20:10:52 20:14:59 73° 77° (ENE) 20:19:09 437.432
Oscar 11 23 Apr 20:21:14 20:25:10 36° 71° (ENE) 20:29:06 .
O/OREOS (USA 219) 23 Apr 20:21:52 20:26:03 33° 60° (ENE) 20:30:10 437.305
UWE-3 23 Apr 20:24:52 20:29:12 88° 257° (WSW) 20:33:27 435.000/436.395/437.385
SEEDS 23 Apr 20:28:28 20:32:14 33° 263° (W) 20:36:03 437.485
CUBEBUG 2 23 Apr 20:30:52 20:35:08 45° 261° (W) 20:39:17 437.445
NO-84 23 Apr 20:39:28 20:43:01 51° 135° (SE) 20:46:16 435.350 FM
STRAND 1 23 Apr 20:48:47 20:53:47 57° 288° (WNW) 20:58:45 437.568
HO-68 23 Apr 20:50:22 20:56:08 26° 266° (W) 21:01:57 435.675
M-CUBED/EXP-1 PRIME 23 Apr 21:15:32 21:19:17 30° 297° (WNW) 21:22:49 437.505
OBJECT BX 23 Apr 21:23:49 21:27:10 35° 72° (ENE) 21:30:31 145.990 - 145.960
AO-85 23 Apr 21:24:15 21:27:19 21° 46° (NE) 21:30:27 145.980
DELFI C3 23 Apr 21:25:58 21:29:50 53° 74° (ENE) 21:33:45 145.870
ZACube-1 23 Apr 21:28:54 21:32:37 29° 264° (W) 21:36:17 437.345
AO-73 23 Apr 21:38:03 21:41:35 26° 265° (W) 21:45:05 145.935
Oscar 11 23 Apr 21:58:16 22:01:24 20° 267° (W) 22:04:33 .
O/OREOS (USA 219) 23 Apr 22:01:34 22:05:17 24° 258° (WSW) 22:08:57 437.305
PRISM 23 Apr 22:06:49 22:10:36 33° 98° (E) 22:14:21 437.425
FO-29 23 Apr 22:15:54 22:19:50 21° 94° (E) 22:23:54 435.910
NO-84 23 Apr 22:18:00 22:20:41 21° 330° (NNW) 22:23:14 435.350 FM
BEESAT 3 23 Apr 22:20:59 22:23:32 16° 42° (NE) 22:26:03 437.485
LO-87 23 Apr 22:38:44 22:42:08 38° 73° (ENE) 22:45:33 145.935 - 145.965
ESTCUBE 1 23 Apr 22:49:33 22:53:32 32° 69° (ENE) 22:57:34 437.505/2401.250
TIGRISAT 23 Apr 22:53:16 22:57:30 64° 101° (E) 23:01:46 435.000
OBJECT BX 23 Apr 22:59:02 23:00:59 14° 268° (W) 23:02:56 145.990 - 145.960
DELFI C3 23 Apr 23:03:36 23:04:57 11° 270° (W) 23:06:17 145.870
AO-85 23 Apr 23:04:06 23:07:49 39° 243° (WSW) 23:11:41 145.980
SPROUT 23 Apr 23:10:52 23:13:09 14° 63° (ENE) 23:15:26 437.525
UNISAT 6 23 Apr 23:13:29 23:17:44 69° 285° (WNW) 23:22:01 437.425
VELOX 1 23 Apr 23:18:10 23:21:22 20° 65° (ENE) 23:24:35 145.980
EO-79 23 Apr 23:29:21 23:30:49 12° 90° (E) 23:32:17 145.935-145.965
DUCHIFAT 1 23 Apr 23:35:41 23:36:48 11° 90° (E) 23:37:54 145.980
50 SAT 23 Apr 23:36:16 23:37:55 13° 65° (ENE) 23:39:35 437.505
PRISM 23 Apr 23:42:34 23:45:40 21° 294° (WNW) 23:48:44 437.425
BEESAT 2 23 Apr 23:48:51 23:52:44 41° 52° (NE) 23:56:34 435.950
UKube-1 23 Apr 23:55:51 23:57:57 13° 62° (ENE) 00:00:03 .
BEESAT 3 23 Apr 23:57:31 00:01:30 61° 241° (WSW) 00:05:25 437.485
FO-29 24 Apr 00:00:16 00:05:10 44° 290° (WNW) 00:10:15 435.910
POLYITAN 1 24 Apr 00:05:41 00:09:24 30° 97° (E) 00:13:07 437.675
QB50P2 24 Apr 00:11:56 00:15:54 39° 98° (E) 00:19:50 145.880/145.840
LO-87 24 Apr 00:14:02 00:15:45 13° 268° (W) 00:17:29 145.935 - 145.965
DX 1 24 Apr 00:19:55 00:23:50 33° 69° (ENE) 00:27:47 434.975-435.025
ESTCUBE 1 24 Apr 00:26:43 00:30:22 24° 265° (W) 00:34:02 437.505/2401.250
TIGRISAT 24 Apr 00:32:00 00:33:40 12° 297° (WNW) 00:35:20 435.000
AIST 2D 24 Apr 00:35:41 00:39:05 48° 286° (WNW) 00:42:29 435.315
NANOSAT C BR1 24 Apr 00:37:04 00:41:14 64° 101° (E) 00:45:22 145.865
SPROUT 24 Apr 00:44:25 00:48:36 54° 260° (W) 00:52:49 437.525
BUGSAT 1 24 Apr 00:48:57 00:52:11 23° 95° (E) 00:55:23 437.445
VELOX 1 24 Apr 00:53:18 00:57:31 41° 261° (W) 01:01:46 145.980
EO-79 24 Apr 01:02:49 01:06:57 58° 286° (WNW) 01:11:03 145.935-145.965
50 SAT 24 Apr 01:07:16 01:10:31 37° 262° (W) 01:13:49 437.505
DUCHIFAT 1 24 Apr 01:08:44 01:12:51 61° 285° (WNW) 01:16:57 145.980
Oscar 19 24 Apr 01:14:03 01:17:24 17° 91° (E) 01:20:44 437.125/150
BEESAT 2 24 Apr 01:27:23 01:30:11 18° 249° (WSW) 01:32:58 435.950
UKube-1 24 Apr 01:29:11 01:33:28 61° 259° (W) 01:37:46 .
PCSat 24 Apr 01:39:48 01:40:26 10° 101° (E) 01:41:05 145.827
POLYITAN 1 24 Apr 01:41:45 01:45:02 23° 293° (WNW) 01:48:19 437.675
ITUPSAT 1 24 Apr 01:47:29 01:50:40 18° 63° (ENE) 01:53:53 437.325
QB50P2 24 Apr 01:48:30 01:51:23 18° 295° (WNW) 01:54:16 145.880/145.840
DX 1 24 Apr 01:56:38 02:00:04 22° 265° (W) 02:03:31 434.975-435.025
NANOSAT C BR1 24 Apr 02:14:51 02:16:24 12° 298° (WNW) 02:17:57 145.865
BUGSAT 1 24 Apr 02:24:07 02:27:30 27° 291° (WNW) 02:30:53 437.445
Gurwin Techsat 1B 24 Apr 02:28:06 02:33:17 49° 100° (E) 02:38:25 435.225
BEESAT 24 Apr 02:44:51 02:49:33 67° 74° (ENE) 02:54:18 436.000
Oscar 19 24 Apr 02:51:57 02:57:05 59° 288° (WNW) 03:02:11 437.125/150
MOZHAYETS 4 24 Apr 03:06:22 03:10:45 49° 73° (ENE) 03:15:09
NO-84 24 Apr 03:13:46 03:16:25 32° 35° (NE) 03:19:01 435.350 FM
PCSat 24 Apr 03:17:30 03:22:55 82° 118° (ESE) 03:28:23 145.827
ITUPSAT 1 24 Apr 03:23:29 03:28:05 51° 259° (W) 03:32:45 437.325
KKS-1 24 Apr 03:42:12 03:45:44 23° 66° (ENE) 03:49:15 437.445
YUBILEINY 24 Apr 03:42:56 03:49:47 27° 82° (E) 03:56:37 435.215
CUBESAT XI-V 24 Apr 03:49:39 03:53:25 25° 67° (ENE) 03:57:13 437.345
Gurwin Techsat 1B 24 Apr 04:08:51 04:12:52 22° 297° (WNW) 04:16:53 435.225
AO-7 24 Apr 04:09:49 04:17:55 54° 102° (ESE) 04:26:01 .
ITAMSAT 1 24 Apr 04:10:49 04:16:00 69° 103° (ESE) 04:21:08 435.822/435.867
STARS 24 Apr 04:22:28 04:26:09 26° 68° (ENE) 04:29:50 437.465
BEESAT 24 Apr 04:25:40 04:27:46 13° 270° (W) 04:29:53 436.000
MOZHAYETS 4 24 Apr 04:45:24 04:48:11 16° 269° (W) 04:50:59
NO-84 24 Apr 04:51:44 04:53:43 17° 232° (SW) 04:55:42 435.350 FM
PCSat 24 Apr 05:03:18 05:06:59 18° 318° (NW) 05:10:42 145.827
KKS-1 24 Apr 05:18:01 05:22:05 34° 263° (W) 05:26:11 437.445
CUBESAT XI-V 24 Apr 05:26:27 05:30:37 33° 264° (W) 05:34:51 437.345
YUBILEINY 24 Apr 05:37:14 05:45:50 65° 281° (W) 05:54:30 435.215
ITAMSAT 1 24 Apr 05:51:48 05:54:52 16° 300° (WNW) 05:57:57 435.822/435.867
STARS 24 Apr 05:58:33 06:02:23 29° 263° (W) 06:06:14 437.465
SO-50 24 Apr 06:01:14 06:02:36 11° 107° (ESE) 06:03:59 436.795
AO-7 24 Apr 06:03:02 06:10:23 37° 301° (WNW) 06:17:44 .
XW-2D 24 Apr 06:15:57 06:18:54 21° 94° (E) 06:21:51 145.860 - 145.880
XW-2B 24 Apr 06:22:39 06:25:48 24° 95° (E) 06:28:57 145.730 - 145.750
M-CUBED/EXP-1 PRIME 24 Apr 06:26:05 06:30:14 34° 64° (ENE) 06:34:28 437.505
STRAND 1 24 Apr 06:26:43 06:30:52 26° 65° (ENE) 06:35:02 437.568
LilacSat-2 24 Apr 06:29:53 06:33:20 32° 97° (E) 06:36:47 437.200
XW-2C 24 Apr 06:34:08 06:37:38 34° 97° (E) 06:41:07 145.795 - 145.815
CUTE-I 24 Apr 06:36:31 06:41:21 34° 97° (E) 06:46:09 437.470
KAITUO 1B 24 Apr 06:39:15 06:42:37 30° 97° (E) 06:45:59 145.475/437.950
DOVE 4 24 Apr 06:46:42 06:51:26 78° 102° (ESE) 06:55:51 437.250
XW-2F 24 Apr 07:01:41 07:05:30 75° 103° (ESE) 07:09:17 145.980 - 146.000
NUDT-PHONESAT 24 Apr 07:22:17 07:25:59 73° 284° (WNW) 07:29:42 437.300
RS-15 24 Apr 07:26:29 07:37:51 53° 110° (ESE) 07:49:34 29.354- 29.394
SO-50 24 Apr 07:37:47 07:42:25 81° 302° (WNW) 07:47:01 436.795
YUBILEINY 24 Apr 07:41:08 07:44:37 13° 304° (NW) 07:48:07 435.215
CUTE 1.7 + AOD 2 24 Apr 07:46:05 07:49:54 30° 96° (E) 07:53:42 437.475
XW-2D 24 Apr 07:49:52 07:53:03 26° 290° (WNW) 07:56:16 145.860 - 145.880
AAUSAT CUBESAT 2 24 Apr 07:54:59 07:56:22 11° 90° (E) 07:57:44 437.432
XW-2B 24 Apr 07:56:52 07:59:53 23° 291° (WNW) 08:02:54 145.730 - 145.750
M-CUBED/EXP-1 PRIME 24 Apr 08:00:48 08:04:39 26° 261° (W) 08:08:34 437.505
LilacSat-2 24 Apr 08:04:43 08:07:23 18° 293° (WNW) 08:10:02 437.200
STRAND 1 24 Apr 08:05:06 08:09:50 39° 262° (W) 08:14:37 437.568
XW-2C 24 Apr 08:09:05 08:11:34 17° 293° (WNW) 08:14:03 145.795 - 145.815
SEEDS 24 Apr 08:11:35 08:15:34 38° 97° (E) 08:19:32 437.485
KAITUO 1B 24 Apr 08:13:49 08:16:25 18° 292° (WNW) 08:19:01 145.475/437.950
UWE-3 24 Apr 08:15:03 08:17:50 17° 93° (E) 08:20:38 435.000/436.395/437.385
HO-68 24 Apr 08:15:53 08:23:02 62° 102° (ESE) 08:30:08 435.675
CUTE-I 24 Apr 08:16:41 08:21:18 31° 294° (WNW) 08:25:53 437.470
XW-2A 24 Apr 08:17:57 08:21:19 82° 103° (ESE) 08:24:40 145.665 - 145.685
CUBEBUG 2 24 Apr 08:21:19 08:25:05 33° 97° (E) 08:28:53 437.445
DOVE 4 24 Apr 08:26:45 08:28:21 12° 301° (WNW) 08:29:55 437.250
FO-29 24 Apr 08:31:36 08:33:34 12° 58° (ENE) 08:35:28 435.910
UNISAT 6 24 Apr 08:39:34 08:40:20 10° 61° (ENE) 08:41:05 437.425
PRISM 24 Apr 08:56:15 08:59:40 25° 68° (ENE) 09:03:06 437.425
ZACube-1 24 Apr 09:16:04 09:20:08 47° 99° (E) 09:24:15 437.345
SO-50 24 Apr 09:21:16 09:23:36 14° 323° (NW) 09:25:55 436.795
CUTE 1.7 + AOD 2 24 Apr 09:22:09 09:25:34 23° 292° (WNW) 09:28:59 437.475
AO-73 24 Apr 09:24:37 09:28:44 54° 100° (E) 09:32:55 145.935
AAUSAT CUBESAT 2 24 Apr 09:28:03 09:32:11 59° 286° (WNW) 09:36:18 437.432
Tancredo 1 24 Apr 09:28:05 09:31:09 64° 141° (SE) 09:34:14 437.200
ISS 24 Apr 09:28:27 09:31:37 49° 140° (SE) 09:34:47 437.550
RS-15 24 Apr 09:38:37 09:50:25 54° 314° (NW) 10:02:31 29.354- 29.394
Oscar 11 24 Apr 09:43:40 09:48:01 74° 101° (E) 09:52:22 .
SEEDS 24 Apr 09:47:57 09:50:58 19° 294° (WNW) 09:53:59 437.485
UWE-3 24 Apr 09:50:34 09:54:27 38° 288° (WNW) 09:58:22 435.000/436.395/437.385
TIGRISAT 24 Apr 09:51:43 09:56:03 56° 74° (ENE) 10:00:18 435.000
CUBEBUG 2 24 Apr 09:58:27 10:01:31 20° 293° (WNW) 10:04:36 437.445
HO-68 24 Apr 10:04:26 10:10:14 27° 301° (WNW) 10:16:03 435.675
FO-29 24 Apr 10:11:23 10:17:54 76° 74° (ENE) 10:23:40 435.910
UNISAT 6 24 Apr 10:11:59 10:16:25 80° 258° (WSW) 10:20:47 437.425
PCSat 24 Apr 10:23:39 10:26:14 13° 38° (NE) 10:28:48 145.827
OBJECT BX 24 Apr 10:25:42 10:29:15 46° 99° (E) 10:32:46 145.990 - 145.960
PRISM 24 Apr 10:31:19 10:34:50 27° 264° (W) 10:38:24 437.425
O/OREOS (USA 219) 24 Apr 10:34:09 10:38:20 36° 105° (ESE) 10:42:35 437.305
DELFI C3 24 Apr 10:37:19 10:41:21 89° 101° (ESE) 10:45:21 145.870
ZACube-1 24 Apr 10:53:35 10:56:03 15° 295° (WNW) 10:58:31 437.345
POLYITAN 1 24 Apr 10:58:30 11:01:54 24° 68° (ENE) 11:05:18 437.675
AO-73 24 Apr 11:02:25 11:04:32 14° 296° (WNW) 11:06:42 145.935
QB50P2 24 Apr 11:04:36 11:08:17 30° 70° (ENE) 11:11:59 145.880/145.840
Tancredo 1 24 Apr 11:04:48 11:07:18 22° 340° (NNW) 11:09:49 437.200
ISS 24 Apr 11:05:26 11:08:14 26° 337° (NNW) 11:11:03 437.550
AIST 2D 24 Apr 11:09:46 11:13:10 54° 75° (ENE) 11:16:34 435.315
Oscar 11 24 Apr 11:22:17 11:23:33 11° 298° (WNW) 11:24:48 .
NANOSAT C BR1 24 Apr 11:28:55 11:32:57 46° 72° (ENE) 11:36:59 145.865
TIGRISAT 24 Apr 11:31:01 11:33:02 13° 269° (W) 11:35:04 435.000
LO-87 24 Apr 11:38:44 11:42:12 47° 99° (E) 11:45:38 145.935 - 145.965
BUGSAT 1 24 Apr 11:39:07 11:41:57 18° 66° (ENE) 11:44:46 437.445
EO-79 24 Apr 11:54:44 11:58:57 80° 257° (WSW) 12:03:12 145.935-145.965
RS-15 24 Apr 11:57:01 12:06:43 25° 346° (NNW) 12:16:26 29.354- 29.394
FO-29 24 Apr 11:59:35 12:03:21 16° 268° (W) 12:06:55 435.910
DUCHIFAT 1 24 Apr 12:00:02 12:04:14 85° 257° (WSW) 12:08:28 145.980
OBJECT BX 24 Apr 12:01:04 12:02:31 12° 295° (WNW) 12:03:59 145.990 - 145.960
PCSat 24 Apr 12:05:16 12:10:42 67° 58° (ENE) 12:16:05 145.827
Gurwin Techsat 1B 24 Apr 12:13:57 12:15:29 11° 57° (ENE) 12:17:01 435.225
O/OREOS (USA 219) 24 Apr 12:14:08 12:17:50 24° 303° (WNW) 12:21:35 437.305
ESTCUBE 1 24 Apr 12:17:47 12:22:20 70° 102° (ESE) 12:26:51 437.505/2401.250
SPROUT 24 Apr 12:30:19 12:33:46 24° 95° (E) 12:37:11 437.525
Oscar 19 24 Apr 12:30:44 12:34:57 26° 65° (ENE) 12:39:10 437.125/150
50 SAT 24 Apr 12:32:00 12:33:31 12° 92° (E) 12:35:01 437.505
POLYITAN 1 24 Apr 12:33:52 12:37:33 29° 264° (W) 12:41:14 437.675
QB50P2 24 Apr 12:40:42 12:44:04 23° 265° (W) 12:47:27 145.880/145.840
Tancredo 1 24 Apr 12:42:34 12:44:06 13° 360° (N) 12:45:37 437.200
VELOX 1 24 Apr 12:43:01 12:47:05 35° 98° (E) 12:51:07 145.980
ISS 24 Apr 12:43:44 12:45:33 14° 357° (N) 12:47:21 437.550
NANOSAT C BR1 24 Apr 13:06:32 13:08:54 15° 268° (W) 13:11:16 145.865
BUGSAT 1 24 Apr 13:13:07 13:17:01 38° 261° (W) 13:20:54 437.445
LO-87 24 Apr 13:14:06 13:15:13 11° 295° (WNW) 13:16:19 145.935 - 145.965
UKube-1 24 Apr 13:16:38 13:19:55 21° 94° (E) 13:23:12 .
AO-85 24 Apr 13:18:08 13:22:23 59° 120° (ESE) 13:26:24 145.980
AO-7 24 Apr 13:20:35 13:25:30 18° 48° (NE) 13:30:27 .
DX 1 24 Apr 13:43:22 13:47:42 61° 101° (ESE) 13:51:59 434.975-435.025
BEESAT 3 24 Apr 13:48:04 13:50:57 20° 112° (ESE) 13:53:53 437.485
Gurwin Techsat 1B 24 Apr 13:49:14 13:54:32 80° 75° (ENE) 13:59:53 435.225
PCSat 24 Apr 13:50:05 13:53:30 17° 255° (WSW) 13:56:53 145.827
ITAMSAT 1 24 Apr 13:52:32 13:55:16 15° 59° (ENE) 13:58:01 435.822/435.867
YUBILEINY 24 Apr 13:53:21 13:56:57 13° 56° (NE) 14:00:33 435.215
ESTCUBE 1 24 Apr 13:56:31 13:58:33 13° 298° (WNW) 14:00:33 437.505/2401.250
50 SAT 24 Apr 14:03:22 14:06:37 36° 288° (WNW) 14:09:50 437.505
SPROUT 24 Apr 14:05:59 14:09:39 29° 291° (WNW) 14:13:18 437.525
Oscar 19 24 Apr 14:09:15 14:14:02 39° 262° (W) 14:18:54 437.125/150
RS-15 24 Apr 14:14:42 14:24:53 28° 21° (NNE) 14:34:48 29.354- 29.394
Tancredo 1 24 Apr 14:18:25 14:20:54 21° 20° (NNE) 14:23:22 437.200
VELOX 1 24 Apr 14:19:54 14:23:19 22° 294° (WNW) 14:26:43 145.980
ISS 24 Apr 14:20:24 14:22:56 20° 18° (NNE) 14:25:28 437.550
SO-50 24 Apr 14:29:51 14:32:23 15° 38° (NE) 14:34:54 436.795
BEESAT 24 Apr 14:45:56 14:48:57 16° 92° (E) 14:51:56 436.000
UKube-1 24 Apr 14:52:06 14:56:01 34° 290° (WNW) 14:59:54 .
AO-85 24 Apr 15:00:22 15:03:05 16° 317° (NW) 15:05:42 145.980
MOZHAYETS 4 24 Apr 15:03:21 15:04:50 11° 89° (E) 15:06:20
AO-7 24 Apr 15:08:39 15:16:53 73° 68° (ENE) 15:25:09 .
BEESAT 2 24 Apr 15:17:16 15:21:12 72° 120° (ESE) 15:25:13 435.950
DX 1 24 Apr 15:21:13 15:23:22 14° 298° (WNW) 15:25:31 434.975-435.025
ITUPSAT 1 24 Apr 15:23:39 15:28:07 39° 98° (E) 15:32:35 437.325
BEESAT 3 24 Apr 15:24:38 15:28:17 36° 309° (NW) 15:32:02 437.485
ITAMSAT 1 24 Apr 15:28:53 15:34:05 78° 257° (WSW) 15:39:18 435.822/435.867
Gurwin Techsat 1B 24 Apr 15:32:51 15:35:04 13° 271° (W) 15:37:18 435.225
YUBILEINY 24 Apr 15:47:00 15:55:44 65° 79° (E) 16:04:26 435.215
Tancredo 1 24 Apr 15:53:59 15:57:05 69° 217° (SW) 16:00:10 437.200
ISS 24 Apr 15:56:30 15:59:46 86° 215° (SW) 16:03:00 437.550
